Meteo Giornale » Osservazioni meteo Italia » Roma Fiumicino

ore: 16:50 - Osservazioni Meteo Roma Fiumicino
Lat. 41° 48' N Lon. 12° 14' E Alt. 2 metri s.l.m.

sereno Europe/Rome

14 °C

Sereno

Temp. 24 Ore

7 °C

16 °C

Est/Nord-Est

9.3 Km/h

Dew point 5 °C

Umidità 54 %

Visibilità  10 Km

Il sole sorge alle ore 07:29

Il sole tramonta alle ore 17:15

Data e Ora Cielo e Fenomeni T °C DP °C Um. % Pres. hPa Vis. km Vento km/h
Oggi h: 16:50 sereno Sereno 14 5 54 1019 10 E/NE 9.3
Oggi h: 16:20 sereno Sereno 14 5 54 1019 10 NE 9.3
Oggi h: 15:50 sereno Sereno 14 4 50 1020 10 E/NE 9.3
Oggi h: 15:20 sereno Sereno 16 4 44 1020 10 E/SE 13
Oggi h: 14:50 sereno Sereno 16 4 44 1020 10 E/SE 22.2
Oggi h: 14:20 sereno Sereno 16 4 44 1019 10 E/SE 24
Oggi h: 13:50 sereno Sereno 15 4 47 1020 10 E/SE 22.2
Oggi h: 13:20 sereno Sereno 16 3 41 1020 10 E/SE 25.9
Oggi h: 12:50 sereno Sereno 16 4 44 1020 10 E 18.5
Oggi h: 12:20 sereno Sereno 14 4 50 1021 10 E/NE 18.5
Oggi h: 11:50 sereno Sereno 14 4 50 1021 10 E/NE 22.2
Oggi h: 11:20 poco_nuvoloso Poco Nuvoloso 13 3 50 1022 10 E/NE 22.2
Oggi h: 10:50 nuvoloso Nuvoloso 12 3 54 1022 10 E/NE 24
Oggi h: 10:20 nuvoloso Nuvoloso 11 3 57 1021 10 E/NE 25.9
Oggi h: 09:50 nuvoloso Nuvoloso 11 2 53 1021 10 E/NE 27.8
Oggi h: 09:20 sereno Sereno 10 2 57 1021 10 E/NE 25.9
Oggi h: 08:50 sereno Sereno 10 2 57 1021 10 E/NE 24
Oggi h: 08:20 sereno Sereno 9 2 61 1021 10 E/NE 25.9
Oggi h: 07:50 sereno Sereno 9 2 61 1021 10 E/NE 25.9
Oggi h: 07:20 sereno Sereno 8 2 65 1021 10 E/NE 24
Oggi h: 06:50 sereno Sereno 8 2 65 1021 10 E/NE 22.2
Oggi h: 06:20 sereno Sereno 8 1 61 1021 10 E/NE 24
Oggi h: 05:50 sereno Sereno 8 1 61 1021 10 E/NE 24
Oggi h: 05:20 sereno Sereno 8 1 61 1021 10 E/NE 22.2
Oggi h: 04:50 sereno Sereno 8 1 61 1021 10 E/NE 22.2
Oggi h: 04:20 sereno Sereno 8 1 61 1021 10 E/NE 22.2
Oggi h: 03:50 sereno Sereno 8 1 61 1021 10 E/NE 18.5
Oggi h: 03:20 sereno Sereno 8 1 61 1021 10 NE 16.7
Oggi h: 02:50 sereno Sereno 7 0 60 1021 10 E/NE 16.7
Oggi h: 02:20 sereno Sereno 8 0 56 1021 10 NE 22.2
Oggi h: 01:50 sereno Sereno 7 0 60 1021 10 E/NE 18.5
Oggi h: 01:20 sereno Sereno 8 0 56 1021 10 NE 20.3
Oggi h: 00:50 sereno Sereno 8 0 56 1022 10 NE 20.3
Oggi h: 00:20 sereno Sereno 8 0 56 1022 10 NE 22.2
Ieri h: 23:50 sereno Sereno 8 0 56 1022 10 NE 20.3
Ieri h: 23:20 sereno Sereno 8 0 56 1022 10 NE 20.3
Ieri h: 22:50 sereno Sereno 8 -1 52 1022 10 E/NE 18.5
Ieri h: 22:20 sereno Sereno 9 -1 49 1022 10 E/NE 24
Ieri h: 21:50 sereno Sereno 10 0 49 1021 10 E/NE 22.2
Ieri h: 21:20 sereno Sereno 10 1 53 1021 10 E/NE 25.9
Ieri h: 20:50 sereno Sereno 10 0 49 1021 10 E/NE 22.2
Ieri h: 20:20 sereno Sereno 10 1 53 1021 10 E/NE 24
Ieri h: 19:50 sereno Sereno 10 1 53 1021 10 E/NE 24
Ieri h: 19:20 sereno Sereno 10 1 53 1021 10 E/NE 22.2
Ieri h: 18:50 sereno Sereno 11 1 50 1021 10 E/NE 22.2
Ieri h: 18:20 sereno Sereno 12 0 43 1021 10 E/NE 22.2
Ieri h: 17:50 sereno Sereno 13 0 40 1021 10 E/NE 20.3
Ieri h: 17:20 sereno Sereno 13 0 40 1021 10 E/NE 18.5
Ieri h: 16:50 sereno Sereno 14 1 41 1021 10 E/NE 20.3